Location: *
(51.2167°N, 10.0667°E)
Time: 04:46:30
(UTC+00:00)

SeaSat 1 - Pass Details

Date: 12 December 2019
Orbit: 744 x 748 km, 108.0° (Epoch: 27 January)

Event Time Altitude Azimuth Distance (km) Brightness Sun altitude
Exits shadow 18:55:55 21° 330° (NNW) 1,622 4.4 -33.7°
Drops below altitude 10° 18:57:34 10° 330° (NNW) 2,273 5.3 -34.0°
Sets 18:59:50 0° 330° (NNW) 3,201 6.1 -34.3°
